Notices

What's New in latest Release from April 7th, 2021:

- Updated Glossary, including Speed of Maximum Gust, and Total Hourly Precipitation

- Updated national and regional climate services offices contacts and prices information

- Addition of station inventory lists for 1981-2010, 1971-2000, and 1961-1990 Normals.

If you haven't already, please take our survey and provide feedback about our website: https://eccc.sondage-survey.ca/f/LanguageSelection.aspx?s=442ca660-fcf1-47c0-95a9-59707d6fd709

Hourly Data Report for September 14, 2017

TORONTO CITY
ONTARIO

43°40'00.000" N
79°24'00.000" W
112.50 m
6158355
71508
XTO

Download Data

Hourly Data (September 2017)
Hourly Data Report for September 14, 2017
TIME
LST
Temp Definition
°C
Dew Point Definition
°C
Rel Hum Definition
%
Precip. Amount Definition
mm

Wind Dir Definition
10's deg

Wind Spd Definition
km/h
Visibility Definition
km
Stn Press Definition
kPa
Hmdx Definition


Wind Chill Definition


Weather Definition


00:00 17.9 13.6 76 0.0 LegendMM LegendMM   99.54     LegendNANA
01:00 17.7 13.6 77 0.0 LegendMM LegendMM   99.55     LegendNANA
02:00 17.4 13.9 80 0.0 LegendMM LegendMM   99.56     LegendNANA
03:00 17.4 13.4 77 0.0 LegendMM LegendMM   99.57     LegendNANA
04:00 17.3 13.7 79 0.0 LegendMM LegendMM   99.60     LegendNANA
05:00 16.8 14.0 84 0.0 LegendMM LegendMM   99.61     LegendNANA
06:00 16.7 13.8 83 0.0 LegendMM LegendMM   99.67     LegendNANA
07:00 18.2 14.7 80 0.0 LegendMM LegendMM   99.70     LegendNANA
08:00 19.7 15.2 75 0.0 LegendMM LegendMM   99.74     LegendNANA
09:00 20.8 15.5 72 0.0 LegendMM LegendMM   99.78 25   LegendNANA
10:00 23.5 15.7 62 0.0 LegendMM LegendMM   99.79 28   LegendNANA
11:00 23.5 17.0 67 0.0 LegendMM LegendMM   99.79 29   LegendNANA
12:00 24.0 16.4 63 0.0 LegendMM LegendMM   99.77 29   LegendNANA
13:00 25.1 16.0 57 0.0 LegendMM LegendMM   99.78 30   LegendNANA
14:00 25.2 14.8 53 0.0 LegendMM LegendMM   99.76 29   LegendNANA
15:00 25.4 14.2 50 0.0 LegendMM LegendMM   99.76 29   LegendNANA
16:00 24.9 14.9 54 0.0 LegendMM LegendMM   99.73 29   LegendNANA
17:00 24.5 14.9 55 0.0 LegendMM LegendMM   99.76 28   LegendNANA
18:00 24.2 15.1 57 0.0 LegendMM LegendMM   99.82 28   LegendNANA
19:00 23.4 15.6 62 0.0 LegendMM LegendMM   99.87 28   LegendNANA
20:00 23.8 15.5 60 0.0 LegendMM LegendMM   99.96 28   LegendNANA
21:00 23.7 15.4 60 0.0 LegendMM LegendMM   100.00 28   LegendNANA
22:00 22.4 14.7 62 0.0 LegendMM LegendMM   100.06 26   LegendNANA
23:00 21.1 15.2 69 0.0 LegendMM LegendMM   100.10 25   LegendNANA

Notes on Data Quality.

Legend

  • E = Estimated
  • M = Missing
  • NA = Not Available*
  • [empty] = Indicates an unobserved value
Date modified: